Regional Weather Roundup
Issued by NWS

Home | Current Version | Previous Version | Graphics & Text | Print | Product List | Glossary On
Versions: 1 2 3 4 5 6 7 8 9 10 11 12 13 14 15 16 17 18 19 20 21 22 23 24 25 26 27 28 29 30 31 32 33 34 35 36 37 38 39 40 41 42 43 44 45 46 47 48 49 50
000
ASUS43 KIND 221400
RWRIN

WEATHER ROUNDUP FOR INDIANA
NATIONAL WEATHER SERVICE INDIANAPOLIS IN
1000 AM EDT MON MAY 22 2017

NOTE: "FAIR" INDICATES FEW OR NO CLOUDS BELOW 12,000 FEET WITH NO
SIGNIFICANT WEATHER AND/OR OBSTRUCTIONS TO VISIBILITY.

* - STATION DOES NOT REPORT WEATHER SUCH AS PRECIPITATION OR FOG.

+ - STATION NOT QUALITY CONTROLLED BY THE NATIONAL WEATHER SERVICE.
    USE DATA WITH CAUTION...ESPECIALLY DEWPOINT AND RELATIVE
    HUMIDITY OBSERVATIONS.

INZ001>003-010>013-019-020-221500-
NORTHWEST INDIANA

CITY           SKY/WX    TMP DP  RH WIND       PRES   REMARKS
GARY /AIRPORT/ MOSUNNY   59  39  47 W14       30.05F
MICHIGAN CITY+ SUNNY     55  41  58 W9        30.05F
MONTICELLO +   SUNNY     57  43  57 W6        30.09F
RENSSELAER +   SUNNY     59  43  55 SW13      30.09R

$$

LMZ046-743>745-221500-
SOUTHERN LAKE MICHIGAN

STATION/POSITION TIME  TEMP    WIND        PRES    WAVE
                       AIR SEA DIR/SP/G            HT
                 (UTC) (F)     (DEG/KT/KT) (MB)    (FT)
BURNS HARBOR     1340   55     250/ 12/ 15 1017.9F
MICHIGAN CITY    1330   53     220/ 16/ 18   N/A
5NW MICH CITY    1350   52 52  240/ 10/ 12   N/A     2

$$

INZ004-005-014>016-021>024-221500-
NORTH CENTRAL INDIANA

CITY           SKY/WX    TMP DP  RH WIND       PRES   REMARKS
ELKHART        SUNNY     55  41  58 W14       30.04F
GOSHEN         SUNNY     56  42  59 W13G24    30.05F
SOUTH BEND     SUNNY     56  44  64 W13       30.05F

$$

INZ006>009-017-018-025>027-221500-
NORTHEAST INDIANA

CITY           SKY/WX    TMP DP  RH WIND       PRES   REMARKS
ANGOLA *+      MOSUNNY   55  45  67 W9        30.03F
FORT WAYNE     PTSUNNY   57  44  62 W18       30.08S
KENDALLVILLE + SUNNY     56  42  60 W15G22    30.05F

$$

INZ028-029-035-036-043>045-051>053-221500-
WEST CENTRAL INDIANA

CITY           SKY/WX    TMP DP  RH WIND       PRES   REMARKS
GREENCASTLE +  CLOUDY    55  46  71 SW3       30.16S
LAFAYETTE      CLOUDY    58  47  66 SW6       30.11S
TERRE HAUTE    CLOUDY    59  49  69 S9        30.15S

$$

INZ030>032-037>040-046>048-054>057-064-065-221500-
CENTRAL INDIANA

CITY           SKY/WX    TMP DP  RH WIND       PRES   REMARKS
ANDERSON       SUNNY    N/A N/A N/A NW12      30.13
COLUMBUS       SUNNY     57  43  58 W12       30.19R
INDIANAPOLIS   CLOUDY    57  46  66 SW7       30.15R
-EAGLE CREEK   CLOUDY    57  43  59 W5        30.14R
KOKOMO +       MOSUNNY   57  45  64 W14       30.11R
SHELBYVILLE    MOSUNNY   60  43  53 W7        30.16R

$$

INZ033-034-041-042-049-050-058-059-221500-
EAST CENTRAL INDIANA

CITY           SKY/WX    TMP DP  RH WIND       PRES   REMARKS
MUNCIE         MOSUNNY   57  43  59 NW13      30.13R
RICHMOND +     CLOUDY    54  43  66 W12G17    30.16R

$$

INZ060-061-067>069-081>083-085>088-221500-
SOUTHWEST INDIANA

CITY           SKY/WX    TMP DP  RH WIND       PRES   REMARKS
EVANSVILLE     CLOUDY    66  50  56 VRB3      30.16F
HUNTINGBURG *+ CLOUDY    61  49  64 CALM      30.17F

$$

INZ062-063-066-070>080-084-089>092-221500-
SOUTH CENTRAL AND SOUTHEAST INDIANA

CITY           SKY/WX    TMP DP  RH WIND       PRES   REMARKS
BLOOMINGTON    SUNNY     59  45  59 VRB3      30.17S
MADISON *+     SUNNY     61  43  51 NW9       30.19F
SEYMOUR +      SUNNY     61  43  51 NW8       30.18S

$$





USA.gov is the U.S. government's official web portal to all federal, state and local government web resources and services.